Retour au catalogue

STARLINK-32642

ActifCommunicationsVLEO
NORAD 62211·PAYLOAD·🇺🇸 United States

Lancé Dec 4, 2024 depuis Cape Canaveral Space Force Station

Loading…

Prochains Passages (prochaines 24 heures)

TLE

FraisSource: CelesTrak SupGP

Époque: Sep 15, 2026, 02:05 UTC

1 62211C 24229V   26258.08729167  .00011780  00000+0  42664-3 0  2583
2 62211  43.0018 280.8720 0001264 262.7051 322.0379 15.27575752    16

Suivez STARLINK-32642 en temps réel avec AllMySat

Download on the App Store